TimeCDT,TemperatureF,Dew PointF,Humidity,Sea Level PressureIn,VisibilityMPH,Wind Direction,Wind SpeedMPH,Gust SpeedMPH,PrecipitationIn,Events,Conditions,WindDirDegrees,DateUTC
12:52 AM,-0.0,-2.0,91,30.51,10.0,Calm,Calm,-,N/A,,Clear,0,2013-03-25 05:52:00
1:52 AM,-0.9,-2.9,91,30.51,10.0,Calm,Calm,-,N/A,,Clear,0,2013-03-25 06:52:00
2:52 AM,-6.0,-9.0,87,30.52,10.0,Calm,Calm,-,N/A,,Clear,0,2013-03-25 07:52:00
3:52 AM,-9.0,-13.0,83,30.53,10.0,Calm,Calm,-,N/A,,Clear,0,2013-03-25 08:52:00
4:52 AM,-7.1,-9.9,87,30.52,10.0,Calm,Calm,-,N/A,,Clear,0,2013-03-25 09:52:00
5:52 AM,-7.1,-11.0,83,30.52,10.0,Calm,Calm,-,N/A,,Clear,0,2013-03-25 10:52:00
6:52 AM,-9.9,-13.0,86,30.53,10.0,Calm,Calm,-,N/A,,Clear,0,2013-03-25 11:52:00
7:52 AM,-9.0,-11.9,87,30.54,10.0,Calm,Calm,-,N/A,,Scattered Clouds,0,2013-03-25 12:52:00
8:37 AM,-7.6,-9.4,92,30.37,9.0,Calm,Calm,-,N/A,,Partly Cloudy,0,2013-03-25 13:37:00
8:52 AM,-6.0,-8.0,91,30.54,3.0,Calm,Calm,-,N/A,,Mostly Cloudy,0,2013-03-25 13:52:00
8:58 AM,-5.8,-7.6,92,30.37,2.5,Calm,Calm,-,N/A,,Overcast,0,2013-03-25 13:58:00
9:16 AM,-2.2,-5.8,85,30.37,3.0,Calm,Calm,-,N/A,,Overcast,0,2013-03-25 14:16:00
9:52 AM,1.0,-0.9,91,30.53,3.0,Calm,Calm,-,N/A,,Overcast,0,2013-03-25 14:52:00
10:15 AM,3.2,1.4,92,30.37,2.5,Calm,Calm,-,N/A,,Overcast,0,2013-03-25 15:15:00
10:32 AM,3.2,3.2,100,30.37,1.5,Calm,Calm,-,N/A,,Overcast,0,2013-03-25 15:32:00
10:52 AM,5.0,3.9,95,30.52,1.5,Variable,3.5,-,0.00,Snow,Light Snow,0,2013-03-25 15:52:00
10:59 AM,6.8,3.2,85,30.37,3.0,SW,5.8,-,N/A,,Overcast,220,2013-03-25 15:59:00
11:33 AM,6.8,3.2,85,30.37,8.0,WSW,3.5,-,N/A,,Scattered Clouds,240,2013-03-25 16:33:00
11:52 AM,8.1,5.0,87,30.53,8.0,SW,4.6,-,N/A,,Partly Cloudy,230,2013-03-25 16:52:00
12:52 PM,12.9,7.0,77,30.51,10.0,Calm,Calm,-,N/A,,Clear,0,2013-03-25 17:52:00
1:52 PM,15.1,9.0,77,30.49,10.0,WSW,4.6,-,N/A,,Clear,250,2013-03-25 18:52:00
2:52 PM,18.0,10.9,74,30.47,10.0,WSW,3.5,-,N/A,,Clear,240,2013-03-25 19:52:00
3:52 PM,19.0,12.0,74,30.46,10.0,SW,5.8,-,N/A,,Clear,230,2013-03-25 20:52:00
4:52 PM,19.9,10.9,68,30.43,10.0,South,5.8,-,N/A,,Clear,190,2013-03-25 21:52:00
5:52 PM,21.0,10.9,65,30.42,10.0,SSE,5.8,-,N/A,,Clear,160,2013-03-25 22:52:00
6:52 PM,21.0,12.0,68,30.40,10.0,South,5.8,-,N/A,,Clear,170,2013-03-25 23:52:00
7:52 PM,19.9,12.0,71,30.39,10.0,South,3.5,-,N/A,,Clear,190,2013-03-26 00:52:00
8:52 PM,17.1,10.9,77,30.38,10.0,Calm,Calm,-,N/A,,Clear,0,2013-03-26 01:52:00
9:52 PM,7.0,7.0,100,30.38,10.0,Calm,Calm,-,N/A,,Clear,0,2013-03-26 02:52:00
10:52 PM,5.0,3.9,95,30.37,10.0,NNW,4.6,-,N/A,,Clear,340,2013-03-26 03:52:00
11:52 PM,5.0,5.0,100,30.35,10.0,Calm,Calm,-,N/A,,Clear,0,2013-03-26 04:52:00